Preview of NWS' New Version of Forecast
This preview is not operational and should not be used for support decisions.

Regional Weather Roundup (RWR)

Issued by National Weather Service (NWS)

                            
000
ASCA42 TJSJ 231010
RWRPR 
PUERTO RICO/U.S. VIRGIN ISLANDS HOURLY WEATHER ROUNDUP
NATIONAL WEATHER SERVICE SAN JUAN PR
600 AM AST THU MAY 23 2019

PRZ001>002-007>008-010-231100-
PUERTO RICO
  
CITY           SKY/WX    TMP DP  RH WIND       PRES   REMARKS
SAN JUAN LMM   MOCLDY    79  70  73 CALM      29.96R                  
$$

VIZ001>002-231100-
U.S. VIRGIN ISLANDS
  
CITY           SKY/WX    TMP DP  RH WIND       PRES   REMARKS
CHARLOTTE AMA  CLEAR     79  72  78 E6        29.95S                  
CHRISTIANSTED  CLOUDY    77  72  83 NE3       29.95S                  
$$

HOURLY WEATHER ROUNDUP FOR THE NEWS MEDIA
  
CITY           SKY/WX    TMP DP  RH WIND       PRES   REMARKS
ORLANDO        FAIR      72  66  81 CALM      30.14S                  
NEW YORK       LGT RAIN  59  53  80 S6        30.23S                  
NEWARK         LGT RAIN  61  51  70 S5        30.21F                  
CHICAGO        MOCLDY    66  59  78 W10       29.90R                  
HARTFORD       CLOUDY    51  44  77 S3        30.26R                  
BOSTON         CLOUDY    56  41  57 S10       30.24R                  
DALLAS         PTCLDY    78  70  76 SE14G23   29.91R                  
PHILADELPHIA   MOCLDY    62  43  49 S8        30.20F                  
LOS ANGELES    MOCLDY    57  49  74 E7        29.84R                  
WASHINGTON DC  MOCLDY    59  49  69 S7        30.17S